User: anonymous   Login
Location: Unspecified
(0.0000°N, 0.0000°E)
Time: 18:01:56
(UTC+02:00)
Language:

Cosmos 1898 Rocket - Orbit

View from above orbital plane
View from above orbital plane
View from above satellite
View from above satellite

Ground track
Ground track

The orbit data is extracted from the following two-line orbital elements,

1 18586U 87098B   16148.99414360  .00000076  00000-0  34772-4 0  9996
2 18586  74.0071 284.5901 0020087  71.2202  70.6963 14.36724009492045
Epoch (UTC): 27 May 2016 23:51:34
Eccentricity: 0.0020087
inclination: 74.0071°
perigee height: 755 km
apogee height: 784 km
right ascension of ascending node: 284.5901°
argument of perigee: 71.2202°
revolutions per day: 14.36724009
mean anomaly at epoch: 70.6963°
orbit number at epoch: 49204

The dashed part of the orbit path shows where the satellite is in the earth's shadow,  

DLR